Regional Weather Roundup
Issued by NWS

Home | Current Version | Previous Version | Graphics & Text | Print | Product List | Glossary On
Versions: 1 2 3 4 5 6 7 8 9 10 11 12 13 14 15 16 17 18 19 20 21 22 23 24 25 26 27 28 29 30 31 32 33 34 35 36 37 38 39 40 41 42 43 44 45 46 47 48 49 50
759
ASUS43 KLMK 231002
RWRKY
KENTUCKY REGIONAL WEATHER ROUNDUP
NATIONAL WEATHER SERVICE LOUISVILLE KY
600 AM EDT THU MAR 23 2017

NOTE "FAIR" INDICATES FEW OR NO CLOUDS BELOW 12,000 FEET
WITH NO SIGNIFICANT WEATHER AND/OR OBSTRUCTIONS TO VISIBILITY.

KYZ001>023-026-027-061>063-070>075-231100-
WESTERN AND SOUTH CENTRAL KENTUCKY

CITY           SKY/WX    TMP DP  RH WIND       PRES   REMARKS
PADUCAH        MOCLDY    41  25  53 E5        30.28S
HENDERSON      CLEAR     36  19  51 E9        30.33F WCI  29
OWENSBORO        N/A    N/A N/A N/A MISG        N/A
HOPKINSVILLE   CLEAR     37  23  57 E7        30.30R WCI  32
BOWLING GREEN  CLEAR     33  23  66 NE7       30.34S WCI  27
GLASGOW        NOT AVBL
$$

KYZ024-025-028>034-038-045-046-053-231100-
NORTH CENTRAL KENTUCKY

CITY           SKY/WX    TMP DP  RH WIND       PRES   REMARKS
LOUISVILLE/SDF CLOUDY    34  15  46 NE7       30.40S WCI  28
LOUISVILLE/LOU CLOUDY    34  17  50 NE7       30.40F WCI  28
FORT KNOX      CLEAR     32  18  55 NE10      30.35S WCI  24
$$

KYZ035>037-039>044-047>052-055>060-089>105-231100-
NORTHEAST KENTUCKY

CITY           SKY/WX    TMP DP  RH WIND       PRES   REMARKS
LEXINGTON      CLEAR     30  16  56 NE12      30.39S WCI  20
COVINGTON      PTCLDY    29  17  61 E10       30.42F WCI  20
FRANKFORT      CLOUDY    31  15  52 NE8       30.39S WCI  23
$$

KYZ054-064>069-076>088-106>120-231100-
SOUTHEAST KENTUCKY

CITY           SKY/WX    TMP DP  RH WIND       PRES   REMARKS
JACKSON        CLEAR     30  14  51 NE6       30.37R WCI  24
LONDON         CLEAR     33  15  47 NE6       30.35R WCI  28
SOMERSET       CLEAR     34  14  44 E3        30.38R
MIDDLESBORO    CLEAR     32  27  81 CALM      30.36R
MONTICELLO     SUNNY     33  20  58 NW7       30.37R WCI  27
$$





USA.gov is the U.S. government's official web portal to all federal, state and local government web resources and services.